Location: Unspecified
(0.0000°N, 0.0000°E)
Time: 09:09:44
(UTC+00:00)

Explorer 11/Cluster Stage 4 - Pass Details

Date: 21 July 2020
Orbit: 467 x 1259 km, 28.8° (Epoch: 03 August)

Event Time Altitude Azimuth Distance (km) Brightness Sun altitude
Rises 13:15:39 0° 325° (NW) 3,211 10.1 63.6°
Reaches altitude 10° 13:18:23 10° 340° (NNW) 2,425 9.7 63.1°
Maximum altitude 13:23:05 24° 32° (NNE) 1,839 8.9 62.4°
Drops below altitude 10° 13:28:32 10° 83° (E) 2,883 9.4 61.4°
Sets 13:32:07 0° 96° (E) 3,968 10.0 60.8°
